Home > Weather > Debrecen > Past weeks

Flag for Hungary Weather for the Past 2 Weeks in Debrecen, Hungary

Now
43 °F

Partly sunny.


Feels Like: 33 °F
Forecast: 30 / 46 °F
Wind: 23 mph from West

Location: Debrecen Airport

Current Time: Feb 11, 2016 at 11:52:30 AM

Latest Report: Feb 11, 2016 at 11:15 AM


Visibility: N/A

Pressure: 29.71 "Hg

Humidity: 76%

Dew point: 36 °F

Location of DebrecenLocation

Historic Weather in Debrecen — Graph

°F

Debrecen Temperature Yesterday

Maximum temperature yesterday: 50 °F (at 5:15 AM)
Minimum temperature yesterday: 39 °F (at 9:15 PM)
Average temperature yesterday: 46 °F

High & Low Weather Summary for the Past Weeks

 TemperatureHumidityPressure
High54 °F (Feb 3, 12:45 PM)100% (Jan 27, 10:45 AM)30.45 "Hg (Jan 27, 10:45 AM)
Low27 °F (Feb 5, 5:15 AM)49% (Feb 5, 3:45 PM)29.18 "Hg (Feb 10, 3:15 PM)
Average41 °F86%30.09 "Hg
* Reported Jan 27 10:15 AM — Feb 11 10:45 AM, Debrecen, Weather by CustomWeather, © 2016

Note: Actual official high and low records may vary slightly from our data, if they occured in-between our weather recording intervals... More about our weather records

Advertising

Debrecen Weather History for the Previous 24 Hours

 ConditionsComfort  
Time TempWeatherWind HumidityBarometerVisibility
10:45 AM
Thu, Feb 11
41 °FPartly sunny.18 mph81%29.71 "HgN/A
10:15 AM41 °FPartly sunny.14 mph81%29.68 "HgN/A
9:59 AM39 °FChilly.16 mph81%29.68 "HgN/A
9:45 AM39 °FPartly sunny.17 mph81%29.68 "HgN/A
9:15 AM39 °FScattered clouds.14 mph81%29.68 "HgN/A
8:45 AM39 °FScattered clouds.15 mph81%29.65 "HgN/A
8:15 AM37 °FSunny.16 mph87%29.65 "Hg10 mi
7:45 AM36 °FSunny.15 mph87%29.65 "Hg10 mi
7:15 AM36 °FSunny.13 mph87%29.62 "Hg10 mi
6:45 AM36 °FClear.13 mph87%29.62 "Hg10 mi
6:15 AM37 °FClear.14 mph87%29.59 "Hg10 mi
5:45 AM37 °FClear.14 mph87%29.59 "Hg10 mi
5:15 AM37 °FClear.14 mph87%29.59 "Hg10 mi
10:45 PM
Wed, Feb 10
39 °FMostly cloudy.25 mph81%29.39 "HgN/A
9:45 PM39 °FMostly cloudy.23 mph81%29.39 "HgN/A
9:15 PM39 °FMostly cloudy.24 mph81%29.39 "HgN/A
8:45 PM41 °FMostly cloudy.23 mph81%29.36 "HgN/A
8:15 PM41 °FMostly cloudy.25 mph81%29.36 "HgN/A
7:45 PM41 °FMostly cloudy.23 mph81%29.36 "HgN/A
7:15 PM41 °FPassing clouds.22 mph87%29.33 "HgN/A
6:45 PM41 °FPassing clouds.25 mph81%29.33 "HgN/A
6:15 PM41 °FPassing clouds.24 mph87%29.30 "HgN/A
5:45 PM41 °FPassing clouds.20 mph87%29.27 "HgN/A
5:15 PM41 °FPassing clouds.24 mph87%29.27 "HgN/A
4:45 PM43 °FPartly sunny.25 mph93%29.24 "HgN/A
4:15 PM48 °FPartly sunny.29 mph87%29.21 "HgN/A
3:50 PM48 °FPartly sunny.29 mph87%29.21 "HgN/A
3:15 PM50 °FLight rain. Mostly cloudy.21 mph82%29.18 "HgN/A
2:45 PM48 °FLight rain. Mostly cloudy.20 mph87%29.21 "HgN/A
2:15 PM50 °FLight rain. Mostly cloudy.20 mph82%29.21 "HgN/A
1:45 PM48 °FLight rain. Mostly cloudy.17 mph87%29.24 "HgN/A
1:15 PM50 °FLight rain. Mostly cloudy.18 mph82%29.24 "HgN/A
12:52 PM50 °FCool.16 mph82%29.27 "HgN/A
12:15 PM50 °FLight rain. Mostly cloudy.16 mph82%29.27 "HgN/A
11:45 AM50 °FLight rain. Mostly cloudy.16 mph82%29.30 "HgN/A
11:15 AM48 °FLight rain. Mostly cloudy.14 mph87%29.33 "HgN/A
Weather by CustomWeather, © 2016

See weather overviewHow to use our weather pages